Time,TemperatureF,DewpointF,PressureIn,WindDirection,WindDirectionDegrees,WindSpeedMPH,WindSpeedGustMPH,Humidity,HourlyPrecipIn,Conditions,Clouds,dailyrainin,SoftwareType,DateUTC
2013-04-23 00:01:00,53.6,46.0,29.23,North,0,0.0,1.6,75,0.00,,,0.00,Rainwise IP-100,2013-04-23 04:01:00,
2013-04-23 00:06:00,53.6,45.0,29.23,North,0,0.0,1.9,74,0.00,,,0.00,Rainwise IP-100,2013-04-23 04:06:00,
2013-04-23 00:11:00,53.6,45.0,29.23,North,0,0.0,0.0,74,0.00,,,0.00,Rainwise IP-100,2013-04-23 04:11:00,
2013-04-23 00:16:00,53.6,45.0,29.23,North,0,0.0,0.0,74,0.00,,,0.00,Rainwise IP-100,2013-04-23 04:16:00,
2013-04-23 00:21:00,53.5,45.0,29.23,North,0,0.0,0.0,73,0.00,,,0.00,Rainwise IP-100,2013-04-23 04:21:00,
2013-04-23 00:26:00,53.4,45.0,29.23,North,0,0.0,0.0,73,0.00,,,0.00,Rainwise IP-100,2013-04-23 04:26:00,
2013-04-23 00:31:00,53.3,45.0,29.24,North,0,0.0,1.2,73,0.00,,,0.00,Rainwise IP-100,2013-04-23 04:31:00,
2013-04-23 00:36:00,53.2,44.0,29.24,North,0,0.0,1.6,72,0.00,,,0.00,Rainwise IP-100,2013-04-23 04:36:00,
2013-04-23 00:41:00,53.2,43.0,29.23,North,0,0.0,0.0,71,0.00,,,0.00,Rainwise IP-100,2013-04-23 04:41:00,
2013-04-23 00:46:00,53.3,44.0,29.23,North,0,0.0,1.2,70,0.00,,,0.00,Rainwise IP-100,2013-04-23 04:46:00,
2013-04-23 00:51:00,53.4,44.0,29.23,North,0,0.0,0.0,70,0.00,,,0.00,Rainwise IP-100,2013-04-23 04:51:00,
2013-04-23 00:56:00,53.5,43.0,29.24,North,0,0.0,0.0,69,0.00,,,0.00,Rainwise IP-100,2013-04-23 04:56:00,
2013-04-23 01:01:00,53.6,43.0,29.23,North,0,0.0,1.4,68,0.00,,,0.00,Rainwise IP-100,2013-04-23 05:01:00,
2013-04-23 01:06:00,53.8,43.0,29.24,North,0,0.0,0.0,66,0.00,,,0.00,Rainwise IP-100,2013-04-23 05:06:00,
2013-04-23 01:11:00,54.0,42.0,29.24,North,0,0.0,0.0,65,0.00,,,0.00,Rainwise IP-100,2013-04-23 05:11:00,
2013-04-23 01:16:00,54.0,43.0,29.23,North,0,0.0,0.0,66,0.00,,,0.00,Rainwise IP-100,2013-04-23 05:16:00,
2013-04-23 01:21:00,54.0,42.0,29.24,North,0,0.0,1.4,65,0.00,,,0.00,Rainwise IP-100,2013-04-23 05:21:00,
2013-04-23 01:26:00,53.9,42.0,29.23,North,0,0.0,1.2,64,0.00,,,0.00,Rainwise IP-100,2013-04-23 05:26:00,
2013-04-23 01:31:00,53.8,42.0,29.23,North,0,0.0,0.0,64,0.00,,,0.00,Rainwise IP-100,2013-04-23 05:31:00,
2013-04-23 01:36:00,53.6,42.0,29.24,North,0,0.0,0.0,65,0.00,,,0.00,Rainwise IP-100,2013-04-23 05:36:00,
2013-04-23 01:41:00,53.4,42.0,29.24,North,0,0.0,0.0,66,0.00,,,0.00,Rainwise IP-100,2013-04-23 05:41:00,
2013-04-23 01:46:00,53.2,41.0,29.24,North,0,0.0,0.0,65,0.00,,,0.00,Rainwise IP-100,2013-04-23 05:46:00,
2013-04-23 01:51:00,53.0,41.0,29.24,North,0,0.0,0.0,65,0.00,,,0.00,Rainwise IP-100,2013-04-23 05:51:00,
2013-04-23 01:56:00,52.8,41.0,29.23,North,0,0.0,0.0,65,0.00,,,0.00,Rainwise IP-100,2013-04-23 05:56:00,
2013-04-23 02:01:00,52.6,41.0,29.23,North,0,0.0,0.0,66,0.00,,,0.00,Rainwise IP-100,2013-04-23 06:01:00,
2013-04-23 02:06:00,52.4,41.0,29.23,North,0,0.0,0.0,66,0.00,,,0.00,Rainwise IP-100,2013-04-23 06:06:00,
2013-04-23 02:11:00,52.2,41.0,29.23,North,0,0.0,0.0,66,0.00,,,0.00,Rainwise IP-100,2013-04-23 06:11:00,
2013-04-23 02:16:00,51.9,41.0,29.23,North,0,0.0,0.0,66,0.00,,,0.00,Rainwise IP-100,2013-04-23 06:16:00,
2013-04-23 02:21:00,51.7,41.0,29.23,North,0,0.0,0.0,66,0.00,,,0.00,Rainwise IP-100,2013-04-23 06:21:00,
2013-04-23 02:26:00,51.5,41.0,29.23,North,0,0.0,0.0,66,0.00,,,0.00,Rainwise IP-100,2013-04-23 06:26:00,
2013-04-23 02:31:00,51.2,40.0,29.23,North,0,0.0,0.0,67,0.00,,,0.00,Rainwise IP-100,2013-04-23 06:31:00,
2013-04-23 02:35:00,51.1,40.0,29.23,North,0,0.0,0.0,67,0.00,,,0.00,Rainwise IP-100,2013-04-23 06:35:00,
2013-04-23 02:40:00,50.8,40.0,29.23,North,0,0.0,0.0,67,0.00,,,0.00,Rainwise IP-100,2013-04-23 06:40:00,
2013-04-23 02:45:00,50.6,40.0,29.23,North,0,0.0,0.0,67,0.00,,,0.00,Rainwise IP-100,2013-04-23 06:45:00,
2013-04-23 02:50:00,50.4,40.0,29.23,North,0,0.0,0.0,68,0.00,,,0.00,Rainwise IP-100,2013-04-23 06:50:00,
2013-04-23 02:55:00,50.2,39.0,29.23,North,0,0.0,0.0,68,0.00,,,0.00,Rainwise IP-100,2013-04-23 06:55:00,
2013-04-23 03:00:00,50.0,40.0,29.23,North,0,0.0,0.0,69,0.00,,,0.00,Rainwise IP-100,2013-04-23 07:00:00,
2013-04-23 03:02:00,49.8,40.0,29.23,North,0,0.0,0.0,69,0.00,,,0.00,Rainwise IP-100,2013-04-23 07:02:00,
2013-04-23 03:07:00,49.6,40.0,29.23,North,0,0.0,0.0,69,0.00,,,0.00,Rainwise IP-100,2013-04-23 07:07:00,
2013-04-23 03:12:00,49.4,40.0,29.22,North,0,0.0,0.0,70,0.00,,,0.00,Rainwise IP-100,2013-04-23 07:12:00,
2013-04-23 03:17:00,49.1,40.0,29.23,North,0,0.0,0.0,71,0.00,,,0.00,Rainwise IP-100,2013-04-23 07:17:00,
2013-04-23 03:22:00,49.0,40.0,29.23,North,0,0.0,0.0,71,0.00,,,0.00,Rainwise IP-100,2013-04-23 07:22:00,
2013-04-23 03:27:00,48.8,40.0,29.23,North,0,0.0,0.0,72,0.00,,,0.00,Rainwise IP-100,2013-04-23 07:27:00,
2013-04-23 03:32:00,48.6,40.0,29.22,North,0,0.0,0.0,72,0.00,,,0.00,Rainwise IP-100,2013-04-23 07:32:00,
2013-04-23 03:37:00,48.3,39.0,29.22,North,0,0.0,0.0,72,0.00,,,0.00,Rainwise IP-100,2013-04-23 07:37:00,
2013-04-23 03:42:00,48.2,40.0,29.22,North,0,0.0,0.0,73,0.00,,,0.00,Rainwise IP-100,2013-04-23 07:42:00,
2013-04-23 03:47:00,48.0,40.0,29.22,North,0,0.0,0.0,73,0.00,,,0.00,Rainwise IP-100,2013-04-23 07:47:00,
2013-04-23 03:52:00,47.7,39.0,29.22,North,0,0.0,1.2,73,0.00,,,0.00,Rainwise IP-100,2013-04-23 07:52:00,
2013-04-23 03:57:00,47.6,39.0,29.22,North,0,0.0,0.0,74,0.00,,,0.00,Rainwise IP-100,2013-04-23 07:57:00,
2013-04-23 04:02:00,47.4,39.0,29.22,North,0,0.0,0.0,74,0.00,,,0.00,Rainwise IP-100,2013-04-23 08:02:00,
2013-04-23 04:07:00,47.2,39.0,29.22,North,0,0.0,0.0,74,0.00,,,0.00,Rainwise IP-100,2013-04-23 08:07:00,
2013-04-23 04:12:00,47.1,39.0,29.22,North,0,0.0,0.0,75,0.00,,,0.00,Rainwise IP-100,2013-04-23 08:12:00,
2013-04-23 04:17:00,46.9,39.0,29.22,North,0,0.0,0.0,76,0.00,,,0.00,Rainwise IP-100,2013-04-23 08:17:00,
2013-04-23 04:22:00,46.7,39.0,29.22,North,0,0.0,0.0,76,0.00,,,0.00,Rainwise IP-100,2013-04-23 08:22:00,
2013-04-23 04:27:00,46.5,40.0,29.21,North,0,0.0,0.0,77,0.00,,,0.00,Rainwise IP-100,2013-04-23 08:27:00,
2013-04-23 04:32:00,46.4,39.0,29.22,North,0,0.0,0.0,77,0.00,,,0.00,Rainwise IP-100,2013-04-23 08:32:00,
2013-04-23 04:37:00,46.2,39.0,29.22,North,0,0.0,0.0,77,0.00,,,0.00,Rainwise IP-100,2013-04-23 08:37:00,
2013-04-23 04:42:00,46.0,39.0,29.22,North,0,0.0,0.0,77,0.00,,,0.00,Rainwise IP-100,2013-04-23 08:42:00,
2013-04-23 04:47:00,45.8,39.0,29.22,North,0,0.0,0.0,77,0.00,,,0.00,Rainwise IP-100,2013-04-23 08:47:00,
2013-04-23 04:52:00,45.7,39.0,29.22,North,0,0.0,0.0,78,0.00,,,0.00,Rainwise IP-100,2013-04-23 08:52:00,
2013-04-23 04:57:00,45.6,39.0,29.23,North,0,0.0,0.0,78,0.00,,,0.00,Rainwise IP-100,2013-04-23 08:57:00,
2013-04-23 05:00:00,45.5,39.0,29.23,North,0,0.0,0.0,78,0.00,,,0.00,Rainwise IP-100,2013-04-23 09:00:00,
2013-04-23 05:02:00,45.5,39.0,29.22,North,0,0.0,0.0,78,0.00,,,0.00,Rainwise IP-100,2013-04-23 09:02:00,
2013-04-23 05:07:00,45.4,39.0,29.23,North,0,0.0,0.0,79,0.00,,,0.00,Rainwise IP-100,2013-04-23 09:07:00,
2013-04-23 05:12:00,45.2,39.0,29.22,North,0,0.0,0.0,79,0.00,,,0.00,Rainwise IP-100,2013-04-23 09:12:00,
2013-04-23 05:17:00,45.0,39.0,29.23,North,0,0.0,0.0,79,0.00,,,0.00,Rainwise IP-100,2013-04-23 09:17:00,
2013-04-23 05:22:00,44.9,39.0,29.23,North,0,0.0,0.0,79,0.00,,,0.00,Rainwise IP-100,2013-04-23 09:22:00,
2013-04-23 05:27:00,44.7,39.0,29.23,North,0,0.0,0.0,80,0.00,,,0.00,Rainwise IP-100,2013-04-23 09:27:00,
2013-04-23 05:32:00,44.6,39.0,29.23,North,0,0.0,0.0,80,0.00,,,0.00,Rainwise IP-100,2013-04-23 09:32:00,
2013-04-23 05:37:00,44.4,38.0,29.23,North,0,0.0,0.0,80,0.00,,,0.00,Rainwise IP-100,2013-04-23 09:37:00,
2013-04-23 05:42:00,44.2,38.0,29.23,North,0,0.0,0.0,80,0.00,,,0.00,Rainwise IP-100,2013-04-23 09:42:00,
2013-04-23 05:47:00,44.0,38.0,29.24,North,0,0.0,0.0,81,0.00,,,0.00,Rainwise IP-100,2013-04-23 09:47:00,
2013-04-23 05:52:00,43.9,38.0,29.23,North,0,0.0,0.0,81,0.00,,,0.00,Rainwise IP-100,2013-04-23 09:52:00,
2013-04-23 05:57:00,43.7,38.0,29.23,North,0,0.0,0.0,81,0.00,,,0.00,Rainwise IP-100,2013-04-23 09:57:00,
2013-04-23 06:02:00,43.6,39.0,29.23,North,0,0.0,0.0,82,0.00,,,0.00,Rainwise IP-100,2013-04-23 10:02:00,
2013-04-23 06:07:00,43.5,39.0,29.23,North,0,0.0,0.0,83,0.00,,,0.00,Rainwise IP-100,2013-04-23 10:07:00,
2013-04-23 06:12:00,43.4,38.0,29.23,North,0,0.0,0.0,83,0.00,,,0.00,Rainwise IP-100,2013-04-23 10:12:00,
2013-04-23 06:17:00,43.3,38.0,29.23,North,0,0.0,0.0,83,0.00,,,0.00,Rainwise IP-100,2013-04-23 10:17:00,
2013-04-23 06:22:00,43.2,38.0,29.23,North,0,0.0,0.0,83,0.00,,,0.00,Rainwise IP-100,2013-04-23 10:22:00,
2013-04-23 06:27:00,43.1,39.0,29.23,North,0,0.0,0.0,84,0.00,,,0.00,Rainwise IP-100,2013-04-23 10:27:00,
2013-04-23 06:32:00,43.0,39.0,29.23,North,0,0.0,0.0,84,0.00,,,0.00,Rainwise IP-100,2013-04-23 10:32:00,
2013-04-23 06:37:00,42.9,39.0,29.23,North,0,0.0,0.0,85,0.00,,,0.00,Rainwise IP-100,2013-04-23 10:37:00,
2013-04-23 06:42:00,42.8,39.0,29.23,North,0,0.0,0.0,85,0.00,,,0.00,Rainwise IP-100,2013-04-23 10:42:00,
2013-04-23 06:47:00,42.7,39.0,29.23,North,0,0.0,0.0,85,0.00,,,0.00,Rainwise IP-100,2013-04-23 10:47:00,
2013-04-23 06:52:00,42.5,39.0,29.23,North,0,0.0,0.0,86,0.00,,,0.00,Rainwise IP-100,2013-04-23 10:52:00,
2013-04-23 06:57:00,42.5,39.0,29.23,North,0,0.0,0.0,86,0.00,,,0.00,Rainwise IP-100,2013-04-23 10:57:00,
2013-04-23 07:02:00,42.4,38.0,29.23,North,0,0.0,0.0,86,0.00,,,0.00,Rainwise IP-100,2013-04-23 11:02:00,
2013-04-23 07:07:00,42.4,38.0,29.23,North,0,0.0,0.0,86,0.00,,,0.00,Rainwise IP-100,2013-04-23 11:07:00,
2013-04-23 07:12:00,42.4,38.0,29.24,North,0,0.0,0.0,86,0.00,,,0.00,Rainwise IP-100,2013-04-23 11:12:00,
2013-04-23 07:17:00,42.5,39.0,29.24,North,0,0.0,0.0,86,0.00,,,0.00,Rainwise IP-100,2013-04-23 11:17:00,
2013-04-23 07:22:00,42.5,39.0,29.24,North,0,0.0,0.0,86,0.00,,,0.00,Rainwise IP-100,2013-04-23 11:22:00,
2013-04-23 07:27:00,42.5,39.0,29.24,North,0,0.0,0.0,86,0.00,,,0.00,Rainwise IP-100,2013-04-23 11:27:00,
2013-04-23 07:32:00,42.6,39.0,29.25,North,0,0.0,0.0,86,0.00,,,0.00,Rainwise IP-100,2013-04-23 11:32:00,
2013-04-23 07:37:00,42.6,39.0,29.25,North,0,0.0,0.0,85,0.00,,,0.00,Rainwise IP-100,2013-04-23 11:37:00,
2013-04-23 07:42:00,42.6,39.0,29.25,North,0,0.0,0.0,85,0.00,,,0.00,Rainwise IP-100,2013-04-23 11:42:00,
2013-04-23 07:47:00,42.8,39.0,29.25,North,0,0.0,1.6,85,0.00,,,0.00,Rainwise IP-100,2013-04-23 11:47:00,
2013-04-23 07:52:00,42.9,39.0,29.25,North,0,0.0,0.0,86,0.00,,,0.00,Rainwise IP-100,2013-04-23 11:52:00,
2013-04-23 07:57:00,43.1,39.0,29.25,North,0,0.0,0.0,86,0.00,,,0.00,Rainwise IP-100,2013-04-23 11:57:00,
2013-04-23 08:02:00,43.5,40.0,29.25,North,0,0.0,0.0,86,0.00,,,0.00,Rainwise IP-100,2013-04-23 12:02:00,
2013-04-23 08:07:00,43.8,40.0,29.25,North,0,0.0,0.0,85,0.00,,,0.00,Rainwise IP-100,2013-04-23 12:07:00,
2013-04-23 08:12:00,44.4,39.0,29.25,North,0,0.0,0.0,84,0.00,,,0.00,Rainwise IP-100,2013-04-23 12:12:00,
2013-04-23 08:17:00,45.0,40.0,29.25,North,0,1.6,2.1,82,0.00,,,0.00,Rainwise IP-100,2013-04-23 12:17:00,
2013-04-23 08:22:00,45.8,39.0,29.25,North,0,0.0,3.5,79,0.00,,,0.00,Rainwise IP-100,2013-04-23 12:22:00,
2013-04-23 08:27:00,46.5,40.0,29.26,NNW,337,0.0,1.6,77,0.00,,,0.00,Rainwise IP-100,2013-04-23 12:27:00,
2013-04-23 08:32:00,47.1,39.0,29.25,NNW,337,1.6,2.8,75,0.00,,,0.00,Rainwise IP-100,2013-04-23 12:32:00,
2013-04-23 08:37:00,47.9,40.0,29.25,SSW,202,0.0,3.0,73,0.00,,,0.00,Rainwise IP-100,2013-04-23 12:37:00,
2013-04-23 08:42:00,48.3,39.0,29.26,SSE,157,1.4,3.3,72,0.00,,,0.00,Rainwise IP-100,2013-04-23 12:42:00,
2013-04-23 08:47:00,48.7,40.0,29.25,SSW,202,0.0,5.6,71,0.00,,,0.00,Rainwise IP-100,2013-04-23 12:47:00,
2013-04-23 08:52:00,49.3,39.0,29.25,North,0,3.5,3.5,69,0.00,,,0.00,Rainwise IP-100,2013-04-23 12:52:00,
2013-04-23 08:57:00,50.0,39.0,29.26,NNE,22,1.2,4.4,68,0.00,,,0.00,Rainwise IP-100,2013-04-23 12:57:00,
2013-04-23 09:02:00,50.6,40.0,29.26,SSW,202,0.0,4.0,67,0.00,,,0.00,Rainwise IP-100,2013-04-23 13:02:00,
2013-04-23 09:07:00,51.0,40.0,29.25,SSW,202,1.9,4.0,66,0.00,,,0.00,Rainwise IP-100,2013-04-23 13:07:00,
2013-04-23 09:12:00,51.2,40.0,29.25,ESE,112,0.0,4.4,66,0.00,,,0.00,Rainwise IP-100,2013-04-23 13:12:00,
2013-04-23 09:17:00,51.5,41.0,29.25,WNW,292,1.4,1.9,66,0.00,,,0.00,Rainwise IP-100,2013-04-23 13:17:00,
2013-04-23 09:22:00,52.1,40.0,29.26,NNE,22,2.3,4.7,65,0.00,,,0.00,Rainwise IP-100,2013-04-23 13:22:00,
2013-04-23 09:27:00,52.7,41.0,29.25,WSW,247,0.0,4.7,64,0.00,,,0.00,Rainwise IP-100,2013-04-23 13:27:00,
2013-04-23 09:32:00,53.0,40.0,29.25,SSW,202,0.0,2.8,63,0.00,,,0.00,Rainwise IP-100,2013-04-23 13:32:00,
2013-04-23 09:37:00,53.4,41.0,29.26,West,270,0.0,1.9,63,0.00,,,0.00,Rainwise IP-100,2013-04-23 13:37:00,
2013-04-23 09:42:00,53.7,40.0,29.26,SW,225,1.2,4.4,62,0.00,,,0.00,Rainwise IP-100,2013-04-23 13:42:00,
2013-04-23 09:47:00,54.2,41.0,29.25,NNW,337,1.9,4.0,61,0.00,,,0.00,Rainwise IP-100,2013-04-23 13:47:00,
2013-04-23 09:52:00,54.5,41.0,29.25,NNE,22,0.0,3.7,60,0.00,,,0.00,Rainwise IP-100,2013-04-23 13:52:00,
2013-04-23 09:57:00,54.9,41.0,29.25,NNE,22,0.0,3.5,60,0.00,,,0.00,Rainwise IP-100,2013-04-23 13:57:00,
2013-04-23 10:02:00,55.3,41.0,29.25,WNW,292,2.1,3.5,59,0.00,,,0.00,Rainwise IP-100,2013-04-23 14:02:00,
2013-04-23 10:07:00,55.6,41.0,29.25,NNW,337,2.1,6.5,58,0.00,,,0.00,Rainwise IP-100,2013-04-23 14:07:00,
2013-04-23 10:12:00,55.8,41.0,29.26,SSE,157,0.0,6.5,57,0.00,,,0.00,Rainwise IP-100,2013-04-23 14:12:00,
2013-04-23 10:17:00,56.1,41.0,29.26,NNW,337,1.4,5.1,57,0.00,,,0.00,Rainwise IP-100,2013-04-23 14:17:00,
2013-04-23 10:22:00,56.6,41.0,29.26,SSE,157,5.4,5.4,56,0.00,,,0.00,Rainwise IP-100,2013-04-23 14:22:00,
2013-04-23 10:27:00,56.9,41.0,29.25,North,0,4.9,5.6,55,0.00,,,0.00,Rainwise IP-100,2013-04-23 14:27:00,
2013-04-23 10:32:00,57.2,40.0,29.26,NNW,337,2.1,6.1,54,0.00,,,0.00,Rainwise IP-100,2013-04-23 14:32:00,
2013-04-23 10:37:00,57.5,40.0,29.26,SW,225,0.0,5.1,53,0.00,,,0.00,Rainwise IP-100,2013-04-23 14:37:00,
2013-04-23 10:42:00,57.8,41.0,29.25,SSW,202,2.3,5.4,53,0.00,,,0.00,Rainwise IP-100,2013-04-23 14:42:00,
2013-04-23 10:47:00,58.0,41.0,29.26,SSE,157,1.4,8.4,53,0.00,,,0.00,Rainwise IP-100,2013-04-23 14:47:00,
2013-04-23 10:52:00,58.3,40.0,29.26,NNE,22,0.0,8.6,52,0.00,,,0.00,Rainwise IP-100,2013-04-23 14:52:00,
2013-04-23 10:57:00,58.6,41.0,29.26,NW,315,1.2,4.4,52,0.00,,,0.00,Rainwise IP-100,2013-04-23 14:57:00,
2013-04-23 11:02:00,59.1,41.0,29.27,SSW,202,4.9,4.9,52,0.00,,,0.00,Rainwise IP-100,2013-04-23 15:02:00,
2013-04-23 11:07:00,59.6,41.0,29.27,NW,315,1.6,7.2,51,0.00,,,0.00,Rainwise IP-100,2013-04-23 15:07:00,
2013-04-23 11:12:00,60.2,41.0,29.26,NNW,337,0.0,4.7,50,0.00,,,0.00,Rainwise IP-100,2013-04-23 15:12:00,
2013-04-23 11:17:00,61.0,41.0,29.26,North,0,1.4,4.7,48,0.00,,,0.00,Rainwise IP-100,2013-04-23 15:17:00,
2013-04-23 11:22:00,61.9,41.0,29.26,NE,45,0.0,3.5,47,0.00,,,0.00,Rainwise IP-100,2013-04-23 15:22:00,
2013-04-23 11:27:00,62.5,41.0,29.26,SSW,202,0.0,5.8,46,0.00,,,0.00,Rainwise IP-100,2013-04-23 15:27:00,
2013-04-23 11:32:00,63.0,41.0,29.26,ENE,67,0.0,3.5,45,0.00,,,0.00,Rainwise IP-100,2013-04-23 15:32:00,
2013-04-23 11:37:00,63.4,42.0,29.25,South,180,4.7,6.1,45,0.00,,,0.00,Rainwise IP-100,2013-04-23 15:37:00,
2013-04-23 11:42:00,63.5,42.0,29.25,NNW,337,2.3,8.2,45,0.00,,,0.00,Rainwise IP-100,2013-04-23 15:42:00,
2013-04-23 11:47:00,63.6,42.0,29.25,North,0,0.0,7.0,45,0.00,,,0.00,Rainwise IP-100,2013-04-23 15:47:00,
2013-04-23 11:52:00,64.3,42.0,29.25,West,270,0.0,3.0,44,0.00,,,0.00,Rainwise IP-100,2013-04-23 15:52:00,
2013-04-23 11:57:00,64.9,42.0,29.24,NNW,337,2.3,3.5,43,0.00,,,0.00,Rainwise IP-100,2013-04-23 15:57:00,
2013-04-23 12:02:00,65.5,41.0,29.24,NNW,337,0.0,4.9,42,0.00,,,0.00,Rainwise IP-100,2013-04-23 16:02:00,
2013-04-23 12:07:00,66.1,42.0,29.24,NNW,337,1.4,4.4,42,0.00,,,0.00,Rainwise IP-100,2013-04-23 16:07:00,
2013-04-23 12:12:00,66.5,42.0,29.23,NNW,337,1.4,5.4,41,0.00,,,0.00,Rainwise IP-100,2013-04-23 16:12:00,
2013-04-23 12:17:00,66.7,41.0,29.23,SE,135,0.0,6.3,40,0.00,,,0.00,Rainwise IP-100,2013-04-23 16:17:00,
2013-04-23 12:22:00,67.0,41.0,29.23,NNE,22,0.0,6.1,39,0.00,,,0.00,Rainwise IP-100,2013-04-23 16:22:00,
2013-04-23 12:27:00,66.9,41.0,29.23,SSW,202,4.9,5.8,39,0.00,,,0.00,Rainwise IP-100,2013-04-23 16:27:00,
2013-04-23 12:32:00,66.8,41.0,29.23,South,180,1.2,5.6,39,0.00,,,0.00,Rainwise IP-100,2013-04-23 16:32:00,
2013-04-23 12:37:00,67.1,42.0,29.22,ENE,67,1.6,6.8,40,0.00,,,0.00,Rainwise IP-100,2013-04-23 16:37:00,
2013-04-23 12:42:00,67.3,42.0,29.23,SSE,157,2.3,7.5,40,0.00,,,0.00,Rainwise IP-100,2013-04-23 16:42:00,
2013-04-23 12:47:00,67.3,42.0,29.23,SSW,202,0.0,4.0,40,0.00,,,0.00,Rainwise IP-100,2013-04-23 16:47:00,
2013-04-23 12:52:00,67.4,42.0,29.22,NW,315,0.0,7.9,40,0.00,,,0.00,Rainwise IP-100,2013-04-23 16:52:00,
2013-04-23 12:57:00,67.4,42.0,29.22,South,180,1.6,9.3,40,0.00,,,0.00,Rainwise IP-100,2013-04-23 16:57:00,
2013-04-23 13:02:00,67.3,42.0,29.22,South,180,2.6,5.6,39,0.00,,,0.00,Rainwise IP-100,2013-04-23 17:02:00,
2013-04-23 13:07:00,67.4,42.0,29.21,SSW,202,0.0,7.7,39,0.00,,,0.00,Rainwise IP-100,2013-04-23 17:07:00,
2013-04-23 13:12:00,67.9,43.0,29.21,South,180,2.3,5.1,40,0.00,,,0.00,Rainwise IP-100,2013-04-23 17:12:00,
2013-04-23 13:17:00,68.3,42.0,29.21,South,180,4.7,6.1,39,0.00,,,0.00,Rainwise IP-100,2013-04-23 17:17:00,
2013-04-23 13:22:00,68.7,42.0,29.20,NNW,337,0.0,5.8,39,0.00,,,0.00,Rainwise IP-100,2013-04-23 17:22:00,
2013-04-23 13:27:00,69.0,43.0,29.20,WSW,247,1.4,10.0,39,0.00,,,0.00,Rainwise IP-100,2013-04-23 17:27:00,
2013-04-23 13:32:00,68.8,42.0,29.20,SSW,202,1.9,10.0,38,0.00,,,0.00,Rainwise IP-100,2013-04-23 17:32:00,
2013-04-23 13:37:00,68.7,42.0,29.20,SSE,157,5.1,8.6,38,0.00,,,0.00,Rainwise IP-100,2013-04-23 17:37:00,
2013-04-23 13:42:00,68.7,42.0,29.20,SSE,157,1.6,10.0,39,0.00,,,0.00,Rainwise IP-100,2013-04-23 17:42:00,
2013-04-23 13:47:00,68.8,43.0,29.20,South,180,5.4,7.7,39,0.00,,,0.00,Rainwise IP-100,2013-04-23 17:47:00,
2013-04-23 13:52:00,68.9,43.0,29.19,SSE,157,3.5,7.5,39,0.00,,,0.00,Rainwise IP-100,2013-04-23 17:52:00,
2013-04-23 13:57:00,68.4,42.0,29.20,South,180,6.5,6.5,39,0.00,,,0.00,Rainwise IP-100,2013-04-23 17:57:00,
2013-04-23 14:02:00,68.4,43.0,29.19,WSW,247,0.0,6.8,40,0.00,,,0.00,Rainwise IP-100,2013-04-23 18:02:00,
2013-04-23 14:07:00,68.9,43.0,29.19,SE,135,0.0,7.0,40,0.00,,,0.00,Rainwise IP-100,2013-04-23 18:07:00,
2013-04-23 14:12:00,69.7,44.0,29.18,SSE,157,0.0,0.0,40,0.00,,,0.00,Rainwise IP-100,2013-04-23 18:12:00,
2013-04-23 14:17:00,70.7,44.0,29.18,SSW,202,3.5,7.7,39,0.00,,,0.00,Rainwise IP-100,2013-04-23 18:17:00,
2013-04-23 14:22:00,71.2,44.0,29.18,North,0,0.0,5.1,38,0.00,,,0.00,Rainwise IP-100,2013-04-23 18:22:00,
2013-04-23 14:27:00,71.5,45.0,29.18,NNW,337,0.0,4.7,38,0.00,,,0.00,Rainwise IP-100,2013-04-23 18:27:00,
2013-04-23 14:32:00,71.7,45.0,29.18,NNE,22,0.0,1.6,38,0.00,,,0.00,Rainwise IP-100,2013-04-23 18:32:00,
2013-04-23 14:37:00,72.2,45.0,29.17,NNE,22,0.0,2.3,38,0.00,,,0.00,Rainwise IP-100,2013-04-23 18:37:00,
2013-04-23 14:42:00,72.7,45.0,29.17,South,180,1.4,4.9,37,0.00,,,0.00,Rainwise IP-100,2013-04-23 18:42:00,
2013-04-23 14:47:00,72.5,45.0,29.17,SSE,157,1.6,4.7,37,0.00,,,0.00,Rainwise IP-100,2013-04-23 18:47:00,
2013-04-23 14:52:00,72.0,45.0,29.16,ESE,112,1.6,5.8,38,0.00,,,0.00,Rainwise IP-100,2013-04-23 18:52:00,
2013-04-23 14:57:00,71.9,45.0,29.16,SSE,157,3.3,4.2,38,0.00,,,0.00,Rainwise IP-100,2013-04-23 18:57:00,
2013-04-23 15:02:00,71.9,45.0,29.17,South,180,4.4,7.9,38,0.00,,,0.00,Rainwise IP-100,2013-04-23 19:02:00,
2013-04-23 15:07:00,71.3,44.0,29.16,South,180,0.0,6.1,38,0.00,,,0.00,Rainwise IP-100,2013-04-23 19:07:00,
2013-04-23 15:12:00,71.1,45.0,29.16,South,180,5.4,5.4,39,0.00,,,0.00,Rainwise IP-100,2013-04-23 19:12:00,
2013-04-23 15:17:00,71.5,45.0,29.16,South,180,3.3,6.8,39,0.00,,,0.00,Rainwise IP-100,2013-04-23 19:17:00,
2013-04-23 15:22:00,71.7,45.0,29.15,South,180,4.4,7.0,39,0.00,,,0.00,Rainwise IP-100,2013-04-23 19:22:00,
2013-04-23 15:27:00,71.6,45.0,29.15,South,180,1.4,8.2,39,0.00,,,0.00,Rainwise IP-100,2013-04-23 19:27:00,
2013-04-23 15:32:00,71.5,45.0,29.15,SSW,202,0.0,5.1,39,0.00,,,0.00,Rainwise IP-100,2013-04-23 19:32:00,
2013-04-23 15:37:00,71.6,45.0,29.15,South,180,5.4,5.8,39,0.00,,,0.00,Rainwise IP-100,2013-04-23 19:37:00,
2013-04-23 15:42:00,71.8,45.0,29.15,North,0,0.0,6.1,39,0.00,,,0.00,Rainwise IP-100,2013-04-23 19:42:00,
2013-04-23 15:47:00,72.2,46.0,29.15,North,0,2.1,3.3,39,0.00,,,0.00,Rainwise IP-100,2013-04-23 19:47:00,
2013-04-23 15:52:00,72.7,46.0,29.15,West,270,0.0,7.0,38,0.00,,,0.00,Rainwise IP-100,2013-04-23 19:52:00,
2013-04-23 15:57:00,73.0,46.0,29.14,South,180,5.6,5.6,38,0.00,,,0.00,Rainwise IP-100,2013-04-23 19:57:00,
2013-04-23 16:02:00,73.1,46.0,29.14,SE,135,0.0,7.2,38,0.00,,,0.00,Rainwise IP-100,2013-04-23 20:02:00,
2013-04-23 16:07:00,73.0,46.0,29.14,SSW,202,1.6,7.2,38,0.00,,,0.00,Rainwise IP-100,2013-04-23 20:07:00,
2013-04-23 16:12:00,73.0,46.0,29.14,South,180,0.0,5.4,38,0.00,,,0.00,Rainwise IP-100,2013-04-23 20:12:00,
2013-04-23 16:17:00,72.6,46.0,29.14,North,0,1.2,4.0,38,0.00,,,0.00,Rainwise IP-100,2013-04-23 20:17:00,
2013-04-23 16:22:00,72.4,45.0,29.13,South,180,4.7,8.2,38,0.00,,,0.00,Rainwise IP-100,2013-04-23 20:22:00,
2013-04-23 16:27:00,72.3,45.0,29.13,SSE,157,1.6,6.8,38,0.00,,,0.00,Rainwise IP-100,2013-04-23 20:27:00,
2013-04-23 16:32:00,72.1,45.0,29.13,South,180,1.9,8.9,38,0.00,,,0.00,Rainwise IP-100,2013-04-23 20:32:00,
2013-04-23 16:37:00,72.0,45.0,29.13,South,180,5.1,7.0,38,0.00,,,0.00,Rainwise IP-100,2013-04-23 20:37:00,
2013-04-23 16:42:00,71.9,45.0,29.12,SSW,202,0.0,7.2,38,0.00,,,0.00,Rainwise IP-100,2013-04-23 20:42:00,
2013-04-23 16:47:00,72.3,45.0,29.13,WSW,247,0.0,3.0,38,0.00,,,0.00,Rainwise IP-100,2013-04-23 20:47:00,
2013-04-23 16:52:00,72.9,47.0,29.12,SSW,202,0.0,2.1,39,0.00,,,0.00,Rainwise IP-100,2013-04-23 20:52:00,
2013-04-23 16:57:00,73.6,47.0,29.12,SSE,157,0.0,8.4,38,0.00,,,0.00,Rainwise IP-100,2013-04-23 20:57:00,
2013-04-23 17:02:00,74.1,46.0,29.12,South,180,0.0,3.5,37,0.00,,,0.00,Rainwise IP-100,2013-04-23 21:02:00,
2013-04-23 17:07:00,74.4,47.0,29.11,South,180,5.8,6.8,37,0.00,,,0.00,Rainwise IP-100,2013-04-23 21:07:00,
2013-04-23 17:12:00,74.3,47.0,29.12,South,180,5.1,7.9,37,0.00,,,0.00,Rainwise IP-100,2013-04-23 21:12:00,
2013-04-23 17:17:00,73.8,45.0,29.11,SSW,202,0.0,5.4,36,0.00,,,0.00,Rainwise IP-100,2013-04-23 21:17:00,
2013-04-23 17:22:00,73.6,46.0,29.11,NNW,337,0.0,6.1,37,0.00,,,0.00,Rainwise IP-100,2013-04-23 21:22:00,
2013-04-23 17:27:00,73.6,46.0,29.11,North,0,1.4,1.9,37,0.00,,,0.00,Rainwise IP-100,2013-04-23 21:27:00,
2013-04-23 17:32:00,73.5,47.0,29.11,South,180,3.7,3.7,38,0.00,,,0.00,Rainwise IP-100,2013-04-23 21:32:00,
2013-04-23 17:37:00,73.4,47.0,29.11,SSW,202,1.6,7.0,38,0.00,,,0.00,Rainwise IP-100,2013-04-23 21:37:00,
2013-04-23 17:42:00,73.3,47.0,29.11,South,180,4.7,6.5,38,0.00,,,0.00,Rainwise IP-100,2013-04-23 21:42:00,
2013-04-23 17:47:00,73.0,46.0,29.11,SSW,202,0.0,7.0,38,0.00,,,0.00,Rainwise IP-100,2013-04-23 21:47:00,
2013-04-23 17:52:00,72.5,45.0,29.11,SSE,157,0.0,4.0,37,0.00,,,0.00,Rainwise IP-100,2013-04-23 21:52:00,
2013-04-23 17:57:00,72.4,45.0,29.11,South,180,1.9,4.4,38,0.00,,,0.00,Rainwise IP-100,2013-04-23 21:57:00,
2013-04-23 18:02:00,72.5,46.0,29.11,SSE,157,4.7,9.6,38,0.00,,,0.00,Rainwise IP-100,2013-04-23 22:02:00,
2013-04-23 18:07:00,72.6,46.0,29.10,WSW,247,0.0,8.4,38,0.00,,,0.00,Rainwise IP-100,2013-04-23 22:07:00,
2013-04-23 18:12:00,72.6,46.0,29.10,South,180,0.0,4.9,38,0.00,,,0.00,Rainwise IP-100,2013-04-23 22:12:00,
2013-04-23 18:17:00,72.5,45.0,29.10,South,180,4.7,9.8,37,0.00,,,0.00,Rainwise IP-100,2013-04-23 22:17:00,
2013-04-23 18:22:00,72.7,45.0,29.10,South,180,3.7,4.9,37,0.00,,,0.00,Rainwise IP-100,2013-04-23 22:22:00,
2013-04-23 18:27:00,72.8,44.0,29.10,NNE,22,0.0,7.0,36,0.00,,,0.00,Rainwise IP-100,2013-04-23 22:27:00,
2013-04-23 18:32:00,72.4,45.0,29.10,SW,225,0.0,3.7,37,0.00,,,0.00,Rainwise IP-100,2013-04-23 22:32:00,
2013-04-23 18:37:00,71.9,45.0,29.10,South,180,3.7,3.7,38,0.00,,,0.00,Rainwise IP-100,2013-04-23 22:37:00,
2013-04-23 18:42:00,71.7,45.0,29.10,South,180,2.6,4.4,39,0.00,,,0.00,Rainwise IP-100,2013-04-23 22:42:00,
2013-04-23 18:47:00,71.6,45.0,29.10,SSE,157,1.2,4.7,39,0.00,,,0.00,Rainwise IP-100,2013-04-23 22:47:00,
2013-04-23 18:52:00,71.5,45.0,29.10,South,180,2.8,6.3,39,0.00,,,0.00,Rainwise IP-100,2013-04-23 22:52:00,
2013-04-23 18:57:00,71.5,45.0,29.10,SSW,202,0.0,4.7,39,0.00,,,0.00,Rainwise IP-100,2013-04-23 22:57:00,
2013-04-23 19:02:00,71.4,45.0,29.10,SSE,157,1.6,5.4,39,0.00,,,0.00,Rainwise IP-100,2013-04-23 23:02:00,
2013-04-23 19:07:00,71.2,45.0,29.10,South,180,3.5,6.5,39,0.00,,,0.00,Rainwise IP-100,2013-04-23 23:07:00,
2013-04-23 19:12:00,71.1,45.0,29.10,South,180,2.3,6.1,39,0.00,,,0.00,Rainwise IP-100,2013-04-23 23:12:00,
2013-04-23 19:17:00,71.0,45.0,29.10,South,180,3.3,8.2,40,0.00,,,0.00,Rainwise IP-100,2013-04-23 23:17:00,
2013-04-23 19:22:00,70.8,45.0,29.10,South,180,1.4,5.8,40,0.00,,,0.00,Rainwise IP-100,2013-04-23 23:22:00,
2013-04-23 19:27:00,70.6,46.0,29.10,ESE,112,0.0,5.1,41,0.00,,,0.00,Rainwise IP-100,2013-04-23 23:27:00,
2013-04-23 19:32:00,70.4,46.0,29.10,South,180,1.4,4.0,41,0.00,,,0.00,Rainwise IP-100,2013-04-23 23:32:00,
2013-04-23 19:37:00,70.2,46.0,29.10,South,180,0.0,4.2,42,0.00,,,0.00,Rainwise IP-100,2013-04-23 23:37:00,
2013-04-23 19:42:00,69.9,47.0,29.10,SSE,157,3.3,3.3,43,0.00,,,0.00,Rainwise IP-100,2013-04-23 23:42:00,
2013-04-23 19:47:00,69.7,46.0,29.10,SSE,157,0.0,3.7,43,0.00,,,0.00,Rainwise IP-100,2013-04-23 23:47:00,
2013-04-23 19:52:00,69.4,47.0,29.10,SSE,157,0.0,0.0,44,0.00,,,0.00,Rainwise IP-100,2013-04-23 23:52:00,
2013-04-23 19:57:00,69.0,47.5,29.10,SSE,157,0.0,0.0,46,0.00,,,0.00,Rainwise IP-100,2013-04-23 23:57:00,
2013-04-23 20:02:00,68.5,47.5,29.10,SSE,157,0.0,0.0,47,0.00,,,0.00,Rainwise IP-100,2013-04-24 00:02:00,
2013-04-23 20:07:00,68.0,47.5,29.11,SSE,157,0.0,0.0,48,0.00,,,0.00,Rainwise IP-100,2013-04-24 00:07:00,
2013-04-23 20:12:00,67.5,48.0,29.11,SSE,157,0.0,0.0,50,0.00,,,0.00,Rainwise IP-100,2013-04-24 00:12:00,
2013-04-23 20:17:00,67.0,48.0,29.10,SSE,157,0.0,0.0,51,0.00,,,0.00,Rainwise IP-100,2013-04-24 00:17:00,
2013-04-23 20:22:00,66.5,48.0,29.10,SSE,157,0.0,0.0,51,0.00,,,0.00,Rainwise IP-100,2013-04-24 00:22:00,
2013-04-23 20:27:00,66.0,47.5,29.11,SSE,157,0.0,0.0,52,0.00,,,0.00,Rainwise IP-100,2013-04-24 00:27:00,
2013-04-23 20:32:00,65.5,47.5,29.11,SSE,157,0.0,0.0,53,0.00,,,0.00,Rainwise IP-100,2013-04-24 00:32:00,
2013-04-23 20:37:00,65.1,47.5,29.11,SSE,157,0.0,0.0,54,0.00,,,0.00,Rainwise IP-100,2013-04-24 00:37:00,
2013-04-23 20:42:00,64.6,48.0,29.12,SSE,157,0.0,0.0,55,0.00,,,0.00,Rainwise IP-100,2013-04-24 00:42:00,
2013-04-23 20:47:00,64.1,48.0,29.12,SSE,157,0.0,0.0,56,0.00,,,0.00,Rainwise IP-100,2013-04-24 00:47:00,
2013-04-23 20:52:00,63.6,48.0,29.12,SSE,157,0.0,0.0,57,0.00,,,0.00,Rainwise IP-100,2013-04-24 00:52:00,
2013-04-23 20:57:00,63.2,48.0,29.12,SSE,157,0.0,0.0,58,0.00,,,0.00,Rainwise IP-100,2013-04-24 00:57:00,
2013-04-23 21:02:00,62.8,48.0,29.13,SSE,157,0.0,0.0,59,0.00,,,0.00,Rainwise IP-100,2013-04-24 01:02:00,
2013-04-23 21:07:00,62.4,48.0,29.13,SSE,157,0.0,0.0,60,0.00,,,0.00,Rainwise IP-100,2013-04-24 01:07:00,
2013-04-23 21:12:00,62.0,48.0,29.13,SSE,157,0.0,0.0,61,0.00,,,0.00,Rainwise IP-100,2013-04-24 01:12:00,
2013-04-23 21:17:00,61.6,48.0,29.13,SSE,157,0.0,0.0,61,0.00,,,0.00,Rainwise IP-100,2013-04-24 01:17:00,
2013-04-23 21:22:00,61.2,47.5,29.13,SSE,157,0.0,0.0,62,0.00,,,0.00,Rainwise IP-100,2013-04-24 01:22:00,
2013-04-23 21:27:00,60.9,47.5,29.14,SSE,157,0.0,0.0,62,0.00,,,0.00,Rainwise IP-100,2013-04-24 01:27:00,
2013-04-23 21:32:00,60.5,48.0,29.14,SSE,157,0.0,0.0,64,0.00,,,0.00,Rainwise IP-100,2013-04-24 01:32:00,
2013-04-23 21:37:00,60.1,47.5,29.14,SSE,157,0.0,0.0,64,0.00,,,0.00,Rainwise IP-100,2013-04-24 01:37:00,
2013-04-23 21:42:00,59.8,48.0,29.14,SSE,157,0.0,0.0,65,0.00,,,0.00,Rainwise IP-100,2013-04-24 01:42:00,
2013-04-23 21:47:00,59.5,48.0,29.14,SSE,157,0.0,0.0,66,0.00,,,0.00,Rainwise IP-100,2013-04-24 01:47:00,
2013-04-23 21:52:00,59.2,48.0,29.14,SSE,157,0.0,0.0,67,0.00,,,0.00,Rainwise IP-100,2013-04-24 01:52:00,
2013-04-23 21:57:00,58.9,48.0,29.14,SSE,157,0.0,0.0,68,0.00,,,0.00,Rainwise IP-100,2013-04-24 01:57:00,
2013-04-23 22:02:00,58.6,48.0,29.14,SSE,157,0.0,0.0,68,0.00,,,0.00,Rainwise IP-100,2013-04-24 02:02:00,
2013-04-23 22:07:00,58.3,48.0,29.15,SSE,157,0.0,0.0,69,0.00,,,0.00,Rainwise IP-100,2013-04-24 02:07:00,
2013-04-23 22:12:00,58.1,48.0,29.15,SSE,157,0.0,0.0,70,0.00,,,0.00,Rainwise IP-100,2013-04-24 02:12:00,
2013-04-23 22:17:00,57.9,48.0,29.14,SSE,157,0.0,0.0,70,0.00,,,0.00,Rainwise IP-100,2013-04-24 02:17:00,
2013-04-23 22:22:00,57.5,48.0,29.15,SSE,157,0.0,0.0,71,0.00,,,0.00,Rainwise IP-100,2013-04-24 02:22:00,
2013-04-23 22:27:00,57.3,49.0,29.14,SSE,157,0.0,0.0,72,0.00,,,0.00,Rainwise IP-100,2013-04-24 02:27:00,
2013-04-23 22:32:00,57.1,48.0,29.14,SSE,157,0.0,0.0,73,0.00,,,0.00,Rainwise IP-100,2013-04-24 02:32:00,
2013-04-23 22:37:00,56.9,48.0,29.15,SSE,157,0.0,0.0,73,0.00,,,0.00,Rainwise IP-100,2013-04-24 02:37:00,
2013-04-23 22:42:00,56.6,48.0,29.15,SSE,157,0.0,0.0,74,0.00,,,0.00,Rainwise IP-100,2013-04-24 02:42:00,
2013-04-23 22:47:00,56.4,49.0,29.15,SSE,157,0.0,0.0,75,0.00,,,0.00,Rainwise IP-100,2013-04-24 02:47:00,
2013-04-23 22:52:00,56.1,48.0,29.15,SSE,157,0.0,0.0,75,0.00,,,0.00,Rainwise IP-100,2013-04-24 02:52:00,
2013-04-23 22:57:00,55.9,48.0,29.15,SSE,157,0.0,0.0,76,0.00,,,0.00,Rainwise IP-100,2013-04-24 02:57:00,
2013-04-23 23:02:00,55.7,48.0,29.15,SSE,157,0.0,0.0,76,0.00,,,0.00,Rainwise IP-100,2013-04-24 03:02:00,
2013-04-23 23:07:00,55.5,49.0,29.15,SSE,157,0.0,0.0,77,0.00,,,0.00,Rainwise IP-100,2013-04-24 03:07:00,
2013-04-23 23:13:00,55.3,48.0,29.15,SSE,157,0.0,0.0,78,0.00,,,0.00,Rainwise IP-100,2013-04-24 03:13:00,
2013-04-23 23:18:00,55.2,48.0,29.15,SSE,157,0.0,0.0,78,0.00,,,0.00,Rainwise IP-100,2013-04-24 03:18:00,
2013-04-23 23:23:00,55.0,49.0,29.15,SSE,157,0.0,0.0,79,0.00,,,0.00,Rainwise IP-100,2013-04-24 03:23:00,
2013-04-23 23:28:00,54.9,49.0,29.15,SSE,157,0.0,0.0,79,0.00,,,0.00,Rainwise IP-100,2013-04-24 03:28:00,
2013-04-23 23:33:00,54.6,48.0,29.15,SSE,157,0.0,0.0,80,0.00,,,0.00,Rainwise IP-100,2013-04-24 03:33:00,
2013-04-23 23:38:00,54.5,48.0,29.15,SSE,157,0.0,0.0,80,0.00,,,0.00,Rainwise IP-100,2013-04-24 03:38:00,
2013-04-23 23:43:00,54.4,49.0,29.15,SSE,157,0.0,0.0,81,0.00,,,0.00,Rainwise IP-100,2013-04-24 03:43:00,
2013-04-23 23:48:00,54.2,48.0,29.14,SSE,157,0.0,0.0,81,0.00,,,0.00,Rainwise IP-100,2013-04-24 03:48:00,
2013-04-23 23:53:00,54.0,48.0,29.14,SSE,157,0.0,0.0,82,0.00,,,0.00,Rainwise IP-100,2013-04-24 03:53:00,
2013-04-23 23:58:00,53.8,48.0,29.14,SSE,157,0.0,0.0,82,0.00,,,0.00,Rainwise IP-100,2013-04-24 03:58:00,